Langley AFB, VA

7:30 PM EDT on April 25, 2017 (GMT -0400)
Langley Air Force Base

Weather History for KLFI - November, 2012

Change the Weather History Date:

Monday, November 5, 2012

  Actual Average Record
Temperature  
Mean Temperature 41 °F -  
Max Temperature 48 °F 60 °F 82 °F (1935)
Min Temperature 34 °F 46 °F 31 °F (1966)
Degree Days  
Heating Degree Days 24    
Moisture  
Dew Point 27 °F    
Average Humidity 55    
Maximum Humidity 83    
Minimum Humidity 36    
Precipitation  
Precipitation 0.00 in - - ()
Sea Level Pressure  
Sea Level Pressure 30.10 in    
Wind  
Wind Speed 7 mph (North)    
Max Wind Speed 13 mph    
Max Gust Speed 18 mph    
Visibility 10 miles    
Events      
Averages and records for this station are not official NWS values.
T = Trace of Precipitation, MM = Missing Value Source: NWS Daily Summary

Daily Weather History Graph

Daily Weather History Graph

Search for Another Location

Airport or City:

Trip Planner

Search our weather history database for the weather conditions in past years. The results will help you decide how hot, cold, wet, or windy it might be!

Date:

Astronomy

Nov. 05, 2012 Rise Set
Actual Time 6:34 AM EST 5:03 PM EST
Civil Twilight 6:07 AM EST 5:30 PM EST
Nautical Twilight 5:36 AM EST 6:01 PM EST
Astronomical Twilight 5:05 AM EST 6:31 PM EST
Moon 10:38 PM EST (11/5) 11:52 AM EST (11/5)
Length of Visible Light 11h 23m
Length of Day
10h 29m
Waning Gibbous, 63% of the Moon is Illuminated
Nov 5
Waning Gibbous
Nov 6
Last Quarter
Nov 13
New
Nov 20
First Quarter
Nov 28
Full

Hourly Weather History & Observations

Time (EST) Temp. Windchill Dew Point Humidity Pressure Visibility Wind Dir Wind Speed Gust Speed Precip Events Conditions
6:19 AM 37.4 °F 33.8 °F 30.2 °F 75% 30.05 in 10.0 mi NW 4.6 mph - N/A   Partly Cloudy
6:55 AM 37.0 °F 32.4 °F 29.5 °F 74% 30.08 in 10.0 mi NW 5.8 mph - N/A   Clear
7:55 AM 39.6 °F 35.4 °F 30.9 °F 71% 30.09 in 10.0 mi Variable 5.8 mph - N/A   Clear
8:55 AM 43.5 °F 37.9 °F 27.7 °F 54% 30.10 in 10.0 mi NNW 10.4 mph - N/A   Clear
9:55 AM 45.5 °F 40.3 °F 25.3 °F 45% 30.10 in 10.0 mi North 10.4 mph 17.3 mph N/A   Partly Cloudy
10:55 AM 46.4 °F 41.5 °F 23.7 °F 41% 30.10 in 10.0 mi North 10.4 mph - N/A   Clear
11:55 AM 47.8 °F - 24.8 °F 41% 30.09 in 10.0 mi North 4.6 mph - N/A   Mostly Cloudy
12:26 PM 46.4 °F 41.1 °F 24.8 °F 43% 30.07 in 10.0 mi North 11.5 mph 17.3 mph N/A   Mostly Cloudy
12:55 PM 47.8 °F - 25.2 °F 41% 30.07 in 10.0 mi NNE 12.7 mph - N/A   Mostly Cloudy
1:55 PM 47.8 °F - 23.9 °F 39% 30.06 in 10.0 mi NNE 11.5 mph 18.4 mph N/A   Clear
2:55 PM 48.0 °F - 22.3 °F 36% 30.06 in 10.0 mi NE 9.2 mph - N/A   Clear
3:55 PM 47.5 °F - 21.9 °F 36% 30.08 in 10.0 mi NNE 8.1 mph - N/A   Clear
4:55 PM 45.0 °F 41.8 °F 22.6 °F 41% 30.08 in 10.0 mi NNE 5.8 mph - N/A   Clear
5:55 PM 43.5 °F 41.9 °F 23.9 °F 46% 30.10 in 10.0 mi North 3.5 mph - N/A   Clear
6:55 PM 37.4 °F - 28.9 °F 71% 30.12 in 10.0 mi Calm Calm - N/A   Clear
7:55 PM 37.2 °F - 30.4 °F 76% 30.14 in 10.0 mi Calm Calm - N/A   Clear
8:55 PM 34.9 °F 32.0 °F 30.2 °F 83% 30.15 in 10.0 mi WNW 3.5 mph - N/A   Partly Cloudy
9:55 PM 41.2 °F 37.3 °F 31.1 °F 67% 30.16 in 10.0 mi North 5.8 mph - N/A   Mostly Cloudy
10:55 PM 41.9 °F 35.0 °F 29.8 °F 62% 30.15 in 10.0 mi ENE 12.7 mph - N/A   Clear
11:55 PM 41.2 °F 34.5 °F 27.5 °F 58% 30.16 in 10.0 mi NE 11.5 mph - N/A   Mostly Cloudy